Weather History for GMAD - October, 2011

Change the Weather History Date:

Sunday, October 9, 2011

  Actual Average Record
Temperature  
Mean Temperature 71 °F -  
Max Temperature 85 °F - - ()
Min Temperature 57 °F - - ()
Cooling Degree Days 6    
Growing Degree Days 21 (Base 50)    
Moisture  
Dew Point 59 °F    
Average Humidity 74    
Maximum Humidity 94    
Minimum Humidity 24    
Precipitation  
Precipitation 0.00 in - - ()
Sea Level Pressure  
Sea Level Pressure 30.03 in    
Wind  
Wind Speed 5 mph ()    
Max Wind Speed 13 mph    
Max Gust Speed -    
Visibility 5.0 miles    
Events      
T = Trace of Precipitation, MM = Missing Value Source: Averaged Metar Reports

Daily Weather History Graph

Daily Weather History Graph

Search for Another Location

Airport or City:

Trip Planner

Search our weather history database for the weather conditions in past years. The results will help you decide how hot, cold, wet, or windy it might be!

Date:

Astronomy

Oct. 09, 2011 Rise Set
Actual Time 6:35 AM WET 6:13 PM WET
Civil Twilight 6:11 AM WET 6:37 PM WET
Nautical Twilight 5:43 AM WET 7:05 PM WET
Astronomical Twilight 5:15 AM WET 7:33 PM WET
Moon 4:39 PM WET (10/9) 4:15 AM WET (10/9)
Length of Visible Light 12h 26m
Length of Day
11h 38m
Waxing Gibbous, 94% of the Moon is Illuminated
Oct 9
Waxing Gibbous
Oct 12
Full
Oct 20
Last Quarter
Oct 26
New
Nov 2
First Quarter

Hourly Weather History & Observations

Time (WET) Temp. Heat Index Dew Point Humidity Pressure Visibility Wind Dir Wind Speed Gust Speed Precip Events Conditions
12:00 AM 62.6 °F - 59.0 °F 88% 30.04 in 5.0 mi East 4.6 mph - N/A   Mostly Cloudy
1:00 AM 62.6 °F - 59.0 °F 88% 30.04 in 5.0 mi ENE 5.8 mph - N/A   Mostly Cloudy
2:00 AM 62.6 °F - 59.0 °F 88% 30.01 in 4.3 mi East 5.8 mph - N/A   Mostly Cloudy
3:00 AM 62 °F - 59 °F 88% 30.00 in 6 mi East 6.9 mph - -  
3:00 AM 62.6 °F - 59.0 °F 88% 29.98 in 5.6 mi East 6.9 mph - N/A   Unknown
4:00 AM 62.6 °F - 59.0 °F 88% 29.98 in 5.6 mi East 5.8 mph - N/A   Unknown
5:00 AM 60.8 °F - 57.2 °F 88% 30.01 in 5.0 mi South 2.3 mph - N/A   Unknown
6:00 AM 58 °F - 56 °F 90% 30.02 in 5 mi South 3.5 mph - -   Partly Cloudy
6:00 AM 60.8 °F - 57.2 °F 88% 30.01 in 5.0 mi South 2.3 mph - N/A   Scattered Clouds
7:00 AM 57.2 °F - 55.4 °F 94% 30.01 in 3.7 mi South 4.6 mph - N/A   Scattered Clouds
8:00 AM 57.2 °F - 55.4 °F 94% 30.04 in 3.1 mi SSE 4.6 mph - N/A   Mostly Cloudy
9:00 AM 64 °F - 62 °F 90% 30.07 in 2 mi SSW 2.3 mph - -   Partly Cloudy
9:00 AM 64.4 °F - 60.8 °F 88% 30.06 in 1.9 mi SSW 3.5 mph - N/A   Scattered Clouds
10:00 AM 69.8 °F - 62.6 °F 78% 30.06 in 6.2 mi SW 3.5 mph - N/A   Partly Cloudy
11:00 AM 78.8 °F - 59.0 °F 51% 30.06 in - Variable 3.5 mph - N/A   Clear
12:00 PM 85 °F - 54 °F 24% 30.04 in 6 mi SW 3.5 mph - -  
12:00 PM 86.0 °F 84.2 °F 53.6 °F 33% 30.04 in - Variable 3.5 mph - N/A   Clear
1:00 PM 86.0 °F 85.4 °F 59.0 °F 40% 30.01 in - West 8.1 mph - N/A   Clear
2:00 PM 82.4 °F 82.9 °F 60.8 °F 48% 30.01 in - West 11.5 mph - N/A   Clear
3:00 PM 82 °F - 59 °F 36% 30.00 in 6 mi West 11.5 mph - -  
3:00 PM 82.4 °F 82.5 °F 59.0 °F 45% 30.01 in - West 11.5 mph - N/A   Clear
4:00 PM 77.0 °F - 60.8 °F 57% 30.01 in - West 12.7 mph - N/A   Clear
5:00 PM 71.6 °F - 60.8 °F 69% 30.01 in - WSW 12.7 mph - N/A   Clear
6:00 PM 70 °F - 62 °F 69% 30.02 in 6 mi WSW 9.2 mph - -   Partly Cloudy
6:00 PM 69.8 °F - 62.6 °F 78% 30.01 in 6.2 mi WSW 9.2 mph - N/A   Scattered Clouds
7:00 PM 66.2 °F - 62.6 °F 88% 30.04 in 6.2 mi SW 6.9 mph - N/A   Mostly Cloudy
8:00 PM 66.2 °F - 62.6 °F 88% 30.06 in 6.2 mi WSW 5.8 mph - N/A   Mostly Cloudy
9:00 PM 66.2 °F - 62.6 °F 88% 30.06 in 6.2 mi SW 4.6 mph - N/A   Mostly Cloudy
10:00 PM 62.6 °F - 60.8 °F 94% 30.06 in 6.2 mi WNW 3.5 mph - N/A   Mostly Cloudy
11:00 PM 64.4 °F - 60.8 °F 88% 30.09 in 3.7 mi NE 4.6 mph - N/A   Scattered Clouds